Regional Weather Roundup
Issued by NWS Huntsville, AL

Home | Current Version | Previous Version | Text Only | Print | Product List | Glossary On
Versions: 1 2 3 4 5 6 7 8 9 10 11 12 13 14 15 16 17 18 19 20 21 22 23 24 25 26 27 28 29 30 31 32 33 34 35 36 37 38 39 40 41 42 43 44 45 46 47 48 49 50
000
ASUS44 KHUN 210210
RWRHUN

WEATHER ROUNDUP FOR THE TENNESSEE VALLEY
NATIONAL WEATHER SERVICE HUNTSVILLE AL
900 PM CDT FRI APR 20 2018

ALZ001>004-210300-
NORTHWEST ALABAMA

CITY           SKY/WX    TMP DP  RH WIND       PRES   REMARKS
SHOALS AIRPORT FAIR      58  36  43 NE6       30.27S
$$

ALZ005>007-016-210300-
NORTH CENTRAL ALABAMA

CITY           SKY/WX    TMP DP  RH WIND       PRES   REMARKS
DECATUR AP     FAIR      50  41  71 NE6       30.27R
HUNTSVILLE AP  FAIR      56  41  57 S3        30.26R
MERIDIANVILLE  CLEAR     56  37  48 NE5       30.27R
REDSTONE ARSN  FAIR      56  35  45 CALM      30.25R
VINEMONT AP    FAIR      49  37  63 CALM      30.29S
$$

ALZ008>010-210300-
NORTHEAST ALABAMA

CITY           SKY/WX    TMP DP  RH WIND       PRES   REMARKS
ALBERTVILLE    FAIR      59  39  47 SE3       30.26S
FORT PAYNE     FAIR      50  34  53 CALM      30.27R
SCOTTSBORO AP  FAIR      52  37  58 CALM      30.28R
$$

TNZ076-096-097-210300-
SOUTHEASTERN MIDDLE TENNESSEE

CITY           SKY/WX    TMP DP  RH WIND       PRES   REMARKS
TULLAHOMA      CLEAR     57  28  33 NE5       30.28S
WINCHESTER     CLEAR     54  34  47 CALM      30.28S
$$

...SURROUNDING SITES...

CITY           SKY/WX    TMP DP  RH WIND       PRES   REMARKS
ATLANTA        FAIR      60  35  39 SE3       30.29R
ANNISTON       FAIR      53  41  63 CALM      30.27R
BIRMINGHAM     FAIR      58  37  45 NE3       30.28R
CHATTANOOGA    FAIR      53  38  56 CALM      30.29R
CORINTH        FAIR      57  32  38 SE3       30.25R
DALTON         FAIR      54  36  50 NW3       30.29S
GADSDEN        FAIR      51  40  65 CALM      30.28R
GOLDEN TRNGL   FAIR      60  39  45 E6        30.22S
HALEYVILLE     FAIR      49  41  74 CALM      30.28S
JACKSON TN     FAIR      59  30  33 NE5       30.26S
MEMPHIS        FAIR      62  32  32 NE8       30.23R
NASHVILLE      PTCLDY    56  32  40 N9        30.31R
OXFORD MS      FAIR      54  41  62 CALM      30.24S
ROME           FAIR      53  41  63 CALM      30.27S
SAVANNAH       CLEAR     52  37  58 CALM      30.26S
SELMER         CLEAR     61  27  27 E6        30.25S
TUPELO         FAIR      62  34  35 NE7       30.23S
TUSCALOOSA     FAIR      56  43  61 NE3       30.24R
$$

...GULF COAST WEATHER...

CITY           SKY/WX    TMP DP  RH WIND       PRES   REMARKS
GULFPORT       FAIR      56  50  80 CALM      30.17R
PASCAGOULA     FAIR      52  49  89 CALM      30.19R
MOBILE         FAIR      56  49  77 MISG      30.19R
GULF SHORES    FAIR      59  50  73 NW5       30.17R
PENSACOLA      MOCLDY    55  49  80 CALM      30.17
DESTIN         FAIR      63  50  62 CALM      30.18R
PANAMA CITY    FAIR      63  57  80 N3        30.19R
APPALACHICOLA  MOCLDY    67  61  81 N6        30.17R
$$




USA.gov is the U.S. government's official web portal to all federal, state and local government web resources and services.